886  
ASUS44 KMEG 160010  
RWRMEG  
MEMPHIS CWA HOURLY WEATHER ROUNDUP  
NATIONAL WEATHER SERVICE MEMPHIS TN  
700 PM CDT SUN SEP 15 2019  
   
..WEST TENNESSEE
 
 
 
CITY SKY/WX TMP DP RH WIND PRES REMARKS
 
MEMPHIS INTL FAIR 92 65 40 E6 30.03S HX 94  
6HR MIN TEMP: 92; 6HR MAX TEMP: 97;  
 
NWS MEMPHIS N/A 87 N/A N/A MISG N/A  
JACKSON FAIR 85 72 65 CALM 30.04S HX 91  
6HR MIN TEMP: 85; 6HR MAX TEMP: 97;  
 
COVINGTON CLEAR 88 72 58 CALM 30.03S HX 94  
SOMERVILLE CLEAR 86 68 54 CALM 30.03S  
BOLIVAR CLEAR 82 73 74 CALM 30.03F  
LEXINGTON CLEAR 84 70 61 CALM 30.03S  
SELMER CLEAR 82 70 65 CALM 30.04S  
DYERSBURG FAIR 88 69 53 N3 30.05R HX 92  
6HR MIN TEMP: 88; 6HR MAX TEMP: 96;  
 
UNION CITY CLEAR 84 70 61 W3 30.03S  
PARIS CLEAR 82 68 61 CALM 30.04S  
 
   
..EASTERN ARKANSAS
 
 
 
CITY SKY/WX TMP DP RH WIND PRES REMARKS
 
JONESBORO NOT AVBL  
WEST MEMPHIS FAIR 86 70 58 CALM 30.02R HX 90  
6HR MIN TEMP: 85; 6HR MAX TEMP: 100;  
 
BATESVILLE CLEAR 89 65 44 SE5 30.05S HX 91  
6HR MIN TEMP: 89; 6HR MAX TEMP: 96;  
 
NEWPORT FAIR 89 67 47 E3 30.04S HX 92  
6HR MIN TEMP: 88; 6HR MAX TEMP: 95;  
 
WALNUT RIDGE FAIR 90 69 50 N5 30.04R HX 94  
6HR MIN TEMP: 89; 6HR MAX TEMP: 96;  
 
BLYTHEVILLE FAIR 89 67 47 SE3 30.03S HX 92  
6HR MIN TEMP: 89; 6HR MAX TEMP: 97;  
 
SEARCY FAIR 84 75 74 CALM 30.04S HX 92  
6HR MIN TEMP: 84; 6HR MAX TEMP: 97;  
 
STUTTGART FAIR 89 73 59 NE3 30.03F HX 97  
6HR MIN TEMP: 89; 6HR MAX TEMP: 95;  
 
PINE BLUFF FAIR 87 69 54 NE6 30.03S HX 91  
6HR MIN TEMP: 87; 6HR MAX TEMP: 96;  
 
MONTICELLO FAIR 89 72 56 CALM 30.02S HX 96  
6HR MIN TEMP: 89; 6HR MAX TEMP: 97;  
 
   
..NORTH MISSISSIPPI
 
 
 
CITY SKY/WX TMP DP RH WIND PRES REMARKS
 
TUPELO FAIR 88 68 51 N5 30.03S HX 91  
6HR MIN TEMP: 88; 6HR MAX TEMP: 95;  
 
OXFORD FAIR 86 70 58 CALM 30.05S HX 90  
BATESVILLE FAIR 84 77 79 CALM 30.03S HX 94  
OLIVE BRANCH PTCLDY 90 68 48 CALM 30.04R HX 93  
TUNICA N/A 88 70 55 CALM 30.03F HX 92  
CLARKSDALE N/A 90 70 51 CALM 30.03S HX 95  
CORINTH FAIR 82 72 69 CALM 30.04S  
GREENWOOD FAIR 89 70 53 SE5 30.02S HX 94  
6HR MIN TEMP: 87; 6HR MAX TEMP: 96;  
 
COLUMBUS FAIR 86 75 69 CALM 30.01F HX 94  
6HR MIN TEMP: 86; 6HR MAX TEMP: 93;  
 
STARKVILLE FAIR 84 72 65 CALM 30.04S  
GOLDEN TRIANGL FAIR 87 74 64 CALM 30.02F HX 95  
6HR MIN TEMP: 87; 6HR MAX TEMP: 94;  
 
   
..SOUTHEAST MISSOURI
 
 
 
CITY SKY/WX TMP DP RH WIND PRES REMARKS
 
KENNETT N/A 88 73 62 CALM 30.03S HX 96  
MALDEN FAIR 91 63 38 N5 30.05S HX 92  
WEST PLAINS CLEAR 85 67 54 CALM 30.09S  
6HR MIN TEMP: 85; 6HR MAX TEMP: 93;  
 
POPLAR BLUFF FAIR 84 71 65 CALM 30.03F  
6HR MIN TEMP: 83; 6HR MAX TEMP: 94;  
 
CAPE GIRARDEAU FAIR 85 72 65 SW5 30.02S HX 91  
6HR MIN TEMP: 85; 6HR MAX TEMP: 95;  
 
   
..NORTHWEST ALABAMA
 
 
 
CITY SKY/WX TMP DP RH WIND PRES REMARKS
 
MUSCLE SHOALS FAIR 87 69 54 CALM 30.04S HX 91  
6HR MIN TEMP: 86; 6HR MAX TEMP: 97;  
 
   
..MIDDLE TENNESSEE
 
 
 
CITY SKY/WX TMP DP RH WIND PRES REMARKS
 
NASHVILLE FAIR 89 63 41 E6 30.05S HX 90  
6HR MIN TEMP: 89; 6HR MAX TEMP: 97;  
 
CLARKSVILLE FAIR 89 64 43 CALM 30.04S HX 90  
6HR MIN TEMP: 88; 6HR MAX TEMP: 95;  
 
DICKSON CLEAR 84 66 54 CALM 30.06S  
COLUMBIA CLEAR 86 66 51 CALM 30.03S  
LAWRENCEBURG CLEAR 84 57 39 CALM 30.06S  
LEWISBURG CLEAR 84 66 54 CALM 30.05S  
 
   
..WESTERN KENTUCKY
 
 
 
CITY SKY/WX TMP DP RH WIND PRES REMARKS
 
PADUCAH FAIR 83 66 56 CALM 30.03F  
6HR MIN TEMP: 82; 6HR MAX TEMP: 96;  
 
FORT CAMPBELL FAIR 88 64 44 CALM 30.04S  
6HR MIN TEMP: 88; 6HR MAX TEMP: 94;  
 
   
..CENTRAL ARKANSAS
 
 
 
CITY SKY/WX TMP DP RH WIND PRES REMARKS
 
LITTLE ROCK CLEAR 88 69 53 E6 30.03S HX 92  
6HR MIN TEMP: 88; 6HR MAX TEMP: 94;  
 
SKY/WX REPORTED AS FAIR MEANS FEW OR NO CLOUDS BELOW  
12 THOUSAND FEET.  
 
 
 
CLICK HERE TO GO TO PREVIOUS BULLETINS.

The Nexlab TN Page
The Nexlab MS Page
The Nexlab AR Page Main Text Page